Temperature
18 18 19 18 19 19 19 19 19 19 18 19 19 19 19 18 18 18 18 18 18 18 18 18 18 18 18 18 18 18 18 18 18 18 18 18 18 18 18 18 17 17 18
19 18 19 19 19 19 19 18 19 19 19 18 18 18 18 18 18 18 18 18 18 18 18 18 18 18 18 18 18 18 18 18 18 18 18 18 18 18 18 18 17 17 18
18 18 18 19 19 19 19 19 19 18 18 18 18 18 18 18 18 18 18 18 18 18 18 18 18 18 18 18 18 18 18 18 18 18 18 17 17 18 18 18 18 17 17
18 18 18 19 19 19 19 19 18 18 18 18 18 18 18 18 18 18 19 18 18 18 18 18 18 18 18 18 18 18 18 18 18 18 18 18 17 18 18 18 18 17 17
18 18 18 19 19 19 19 19 18 18 18 18 18 18 18 18 18 18 18 18 18 18 18 18 18 18 18 18 18 18 18 18 18 18 18 17 17 18 18 17 17 17 17
18 18 18 19 19 19 19 18 18 18 18 18 18 18 18 18 18 18 18 18 18 18 18 18 18 18 18 18 18 18 18 18 18 18 18 18 17 18 18 17 17 17 17
19 18 18 19 19 19 19 19 18 18 18 18 18 18 18 18 18 18 18 18 18 18 18 18 18 18 18 18 18 18 18 18 18 18 18 18 17 18 18 18 17 17 17
19 18 18 19 19 19 19 19 19 19 18 18 18 18 18 18 18 18 18 18 18 18 18 18 18 18 18 18 18 18 18 18 18 18 18 18 18 18 18 18 17 17 17
19 19 18 18 19 19 19 19 19 19 19 18 18 18 18 18 18 18 18 18 18 18 18 18 18 18 18 18 18 18 18 18 18 18 18 18 18 18 18 18 18 17 17
19 19 18 18 18 18 18 19 19 19 18 18 18 18 18 18 18 18 18 18 18 18 18 18 18 18 18 18 18 18 18 18 18 18 18 18 18 18 18 18 18 18 18
19 19 19 19 18 19 18 18 18 18 18 18 18 18 18 18 18 18 18 18 18 18 18 18 18 18 18 18 18 18 18 18 18 18 18 18 18 18 18 18 18 18 18
19 19 19 19 19 19 18 18 18 18 18 18 18 18 18 18 18 18 18 18 18 18 18 18 18 18 18 18 18 18 18 18 18 18 18 18 18 18 18 18 18 18 18
20 19 19 19 19 19 18 18 18 18 18 18 18 18 18 18 18 18 18 18 18 18 18 18 18 18 18 18 18 18 18 18 19 18 18 18 18 18 18 18 18 18 17
20 19 19 19 19 19 18 18 18 18 18 18 18 18 18 18 18 18 18 18 18 18 18 18 18 18 18 18 18 18 18 18 18 18 18 18 18 18 18 18 18 18 17
20 19 19 19 19 18 18 18 18 18 18 18 18 18 18 18 18 18 18 18 18 18 18 18 18 18 18 18 18 18 18 18 18 18 18 18 18 18 18 18 18 18 17
20 20 19 19 19 19 18 18 18 18 18 18 18 18 18 18 18 18 18 18 18 18 18 18 18 18 18 18 18 18 18 18 18 18 18 18 18 18 18 18 18 18 18
20 20 19 19 19 19 18 18 18 19 19 18 18 18 18 18 18 18 18 18 18 18 18 18 18 18 18 18 18 18 18 18 18 18 18 18 18 18 18 18 18 18 18
20 20 19 19 19 19 19 19 19 19 18 18 18 18 18 18 18 18 18 18 18 18 18 18 18 18 18 18 18 18 18 18 18 18 18 18 18 18 18 18 18 18 18
20 20 19 19 19 19 19 19 19 19 18 18 18 18 18 18 18 18 18 18 18 18 18 18 18 18 18 18 18 18 18 18 18 18 18 18 18 18 18 18 18 18 18
20 20 20 19 19 19 19 19 19 19 18 18 18 18 18 18 18 18 18 18 18 18 18 18 18 18 18 18 18 18 18 18 18 18 18 18 18 18 18 17 17 17 18
20 20 20 20 19 19 19 19 19 19 19 19 19 18 18 18 18 18 18 18 18 18 18 18 18 18 18 18 18 18 19 19 18 18 18 18 18 18 18 17 17 17 17
21 20 20 20 20 20 19 19 19 19 19 19 19 18 18 18 18 18 18 18 18 18 18 18 18 18 18 18 18 19 19 19 18 19 18 18 18 18 18 17 17 17 17
21 21 21 20 20 20 20 19 19 19 19 19 19 18 18 18 18 18 18 18 18 18 18 18 18 18 18 18 18 18 19 20 19 19 18 18 18 18 18 17 17 17 17
22 21 21 21 20 20 20 19 19 19 19 19 19 19 18 18 18 18 18 18 18 18 18 18 18 18 18 18 18 18 18 18 19 19 18 18 18 17 17 18 18 17 17
22 21 21 21 21 20 20 20 19 19 19 19 19 19 19 18 18 18 18 18 18 18 18 18 18 18 18 18 18 18 18 18 18 18 18 18 18 18 17 17 17 17 17
22 21 21 21 21 20 20 20 20 19 19 19 19 19 19 18 18 18 18 18 18 18 18 18 18 18 17 17 18 18 18 18 18 18 18 18 18 18 17 17 17 17 17
Wind_Speed
4 6 10 10 12 12 13 14 15 15 15 15 15 15 14 14 14 13 12 12 11 11 11 11 10 10 10 9 9 10 9 9 8 9 9 9 8 9 9 8 8 10 13
7 8 12 12 12 12 13 13 14 15 15 14 14 14 14 14 13 13 12 11 11 11 11 10 10 10 9 9 9 9 9 8 8 8 8 8 8 8 7 6 3 9 12
9 10 12 11 11 11 12 13 14 14 14 14 13 13 13 13 12 12 11 11 10 10 10 10 10 9 9 9 8 8 8 8 7 7 7 7 9 9 7 7 7 10 10
10 11 12 11 11 11 12 12 13 13 13 13 13 13 12 11 11 11 10 10 10 9 10 9 9 8 8 8 8 7 7 7 6 6 5 5 7 11 8 8 8 9 9
10 11 13 11 11 10 11 13 13 13 12 12 12 12 11 10 9 9 9 9 9 9 9 9 8 7 7 7 7 7 7 6 5 5 3 4 5 10 8 8 8 8 9
11 11 13 11 11 11 12 13 13 12 12 11 11 10 10 9 9 8 8 8 8 8 8 7 7 7 7 6 6 6 5 5 6 3 3 4 6 10 8 8 8 9 9
11 11 13 11 11 12 12 12 12 11 11 10 10 9 9 8 8 7 7 7 7 6 6 6 6 6 6 5 5 5 4 4 3 2 3 3 5 8 7 7 8 8 8
10 11 12 12 11 11 11 11 11 10 9 9 8 8 7 7 7 6 6 6 6 5 5 5 5 5 4 4 4 5 4 6 4 3 3 3 7 7 6 5 7 8 8
9 9 10 11 11 11 10 9 9 9 8 8 7 7 6 6 6 5 5 5 5 5 5 4 5 4 4 4 4 4 4 6 4 3 3 3 7 6 6 6 7 7 8
8 8 8 9 9 9 10 9 8 7 7 7 6 6 6 6 6 6 6 5 4 4 4 4 4 4 4 4 4 5 6 8 6 4 4 5 8 6 6 7 7 8 8
8 7 7 8 8 7 8 9 8 7 7 6 6 7 6 5 5 6 4 5 4 3 3 4 4 4 5 6 6 7 8 6 3 2 2 7 7 6 6 7 8 8 8
9 8 7 6 7 6 6 6 5 5 6 4 3 4 4 3 3 3 6 5 5 5 6 6 6 8 9 6 8 10 5 4 3 2 4 8 7 6 6 7 8 8 9
9 7 7 6 5 5 4 4 3 3 4 4 3 2 2 2 3 3 3 5 5 6 5 6 8 6 4 2 3 4 2 2 2 2 5 8 7 7 7 7 7 8 9
8 8 6 6 5 4 3 3 3 3 2 2 4 3 2 1 1 1 1 2 3 2 2 3 3 3 2 3 3 3 3 3 2 2 5 8 6 6 7 7 7 7 8
7 7 6 5 4 4 3 3 3 2 2 3 2 2 2 1 1 1 1 1 1 1 2 2 2 2 2 4 4 4 3 3 3 3 4 8 7 6 7 7 7 7 8
7 7 7 6 6 5 4 3 3 3 3 2 2 2 2 2 1 1 1 1 1 2 1 1 2 2 3 2 3 3 4 4 3 4 3 6 9 8 7 7 7 7 8
7 7 7 7 6 5 5 4 4 3 3 2 2 3 3 2 1 2 1 2 1 1 1 2 2 2 3 3 3 3 3 3 2 3 4 3 5 9 8 7 7 7 7
8 7 7 6 6 6 4 4 3 3 2 2 2 2 2 2 2 2 2 1 1 2 2 1 2 1 2 2 2 2 2 2 2 3 4 3 3 3 7 9 7 7 7
8 8 8 6 6 5 5 4 3 3 3 3 2 2 2 3 3 3 1 0 1 1 2 2 0 1 1 2 2 2 2 2 2 2 2 2 2 3 3 9 10 8 7
9 9 8 7 6 5 5 4 4 3 3 3 3 2 3 3 3 2 2 1 1 1 1 1 1 1 2 2 2 1 2 2 2 2 2 2 2 3 3 3 6 8 9
10 10 9 8 8 6 5 5 4 4 4 3 3 3 3 3 2 2 1 2 2 1 1 2 2 2 2 1 2 2 2 3 2 2 2 2 2 2 2 2 3 3 6
10 10 10 9 8 8 6 5 4 3 3 3 2 3 3 3 3 3 2 2 2 2 2 2 2 2 2 1 2 2 2 3 2 2 2 3 2 2 2 2 2 2 3
10 11 10 9 9 9 7 5 4 3 4 3 3 3 3 4 3 2 2 3 2 2 2 2 3 3 2 2 2 2 2 1 1 2 2 2 2 2 2 1 2 3 3
11 10 10 9 9 8 8 7 7 6 5 4 3 3 3 4 4 3 3 3 3 2 2 3 3 3 3 3 2 3 3 2 2 1 2 2 3 3 2 2 2 2 3
10 9 9 9 9 8 8 8 7 6 5 4 4 4 4 4 4 3 3 3 3 3 2 3 2 3 3 4 3 2 3 3 4 4 3 2 3 3 3 3 2 2 2
9 8 8 8 8 8 8 8 8 7 6 5 5 4 5 4 4 4 4 3 3 3 3 3 3 4 3 4 4 3 3 3 3 4 4 4 3 3 2 2 3 3 3
Wind_Direction
116 111 110 117 121 120 118 120 124 125 126 125 128 129 128 127 125 124 126 127 123 120 119 117 117 117 115 114 113 113 114 114 116 117 118 119 119 121 125 132 147 128 123
123 117 116 118 121 120 118 120 123 124 125 125 126 129 128 127 126 125 124 125 122 120 118 116 116 116 115 113 112 114 116 119 122 124 128 132 131 129 134 139 135 118 133
121 121 124 118 120 121 121 123 125 124 126 126 124 124 127 127 126 125 125 125 124 122 119 116 116 116 117 117 117 117 120 121 121 135 160 150 135 136 137 135 127 130 138
121 122 118 117 119 122 126 127 126 128 128 127 126 125 124 126 126 126 125 126 126 125 121 119 116 116 118 118 119 120 122 125 133 181 176 137 131 130 140 137 140 146 146
121 120 115 117 116 119 128 130 128 128 129 128 128 127 127 128 128 127 128 129 128 127 125 123 121 121 122 120 120 122 125 135 165 211 129 123 123 128 144 147 150 153 153
123 121 116 116 113 113 122 126 128 129 129 129 128 128 130 134 133 131 130 132 132 128 127 128 127 127 128 125 125 127 134 162 203 164 139 141 128 132 149 157 158 157 159
124 121 119 118 116 116 119 122 124 127 127 128 128 129 133 135 137 138 136 136 136 135 136 139 140 140 140 138 141 144 158 215 215 143 146 144 120 130 152 162 162 164 163
124 122 121 124 121 118 120 122 124 125 129 130 130 135 138 141 145 147 147 147 146 146 146 148 151 152 154 157 163 167 191 240 190 168 167 136 116 138 158 164 167 170 170
126 125 127 131 131 129 124 125 128 130 132 137 142 145 146 149 152 152 154 154 154 159 162 163 166 166 170 175 179 186 205 249 242 186 172 145 129 153 172 177 178 178 180
129 127 128 131 129 135 134 132 130 133 137 144 154 154 156 166 168 166 174 160 161 166 169 173 173 177 179 182 186 195 212 231 225 189 178 141 142 170 189 190 188 188 187
137 136 137 134 134 135 131 133 142 149 153 164 165 167 185 185 172 176 147 150 167 169 180 185 184 186 199 190 194 207 223 226 198 181 160 126 157 185 196 198 195 194 193
147 145 144 144 141 139 136 139 154 154 149 165 153 166 182 178 183 170 137 168 178 189 194 194 200 209 226 198 184 205 221 215 213 180 139 142 175 197 207 206 202 201 199
149 150 152 150 147 149 147 152 150 146 150 160 156 184 183 198 181 178 167 169 183 198 197 185 205 215 216 214 223 218 234 246 225 192 143 153 186 205 210 207 205 206 202
155 160 160 160 161 165 161 157 171 170 165 157 152 201 184 194 210 147 173 170 192 186 191 205 204 211 224 225 234 239 232 238 235 206 151 158 188 207 213 212 209 206 202
163 167 170 170 168 176 180 200 185 183 193 169 166 166 207 206 204 160 170 222 230 187 190 208 212 210 221 221 226 227 241 252 254 242 169 167 191 209 212 211 213 210 207
174 176 174 181 180 186 193 199 198 191 194 197 188 173 221 240 245 231 206 208 231 235 222 217 221 221 224 227 236 241 247 243 240 249 226 178 186 198 203 206 211 215 215
177 179 179 186 184 194 205 208 202 205 196 202 194 193 223 237 236 264 233 218 236 250 228 221 226 228 222 220 227 235 241 245 240 245 255 230 191 186 193 202 210 216 223
180 181 185 189 183 188 203 216 211 211 203 211 214 199 199 207 215 241 239 222 232 233 222 225 235 242 242 242 241 250 231 217 226 233 241 235 236 210 187 188 201 214 223
186 188 189 192 190 192 194 209 221 214 219 217 216 207 183 201 210 228 227 52 224 218 233 253 183 264 257 262 239 221 227 217 222 219 228 231 223 233 213 176 189 205 216
188 192 193 193 193 196 196 203 220 222 221 217 212 201 212 210 210 236 192 174 223 206 233 278 259 257 265 261 260 234 223 214 217 211 233 211 212 222 227 215 200 196 199
190 194 200 203 194 196 201 207 210 212 218 212 206 196 199 202 197 221 235 170 222 206 233 236 245 232 245 252 242 230 206 199 209 203 223 244 225 227 214 212 232 230 191
193 196 199 204 202 203 202 211 219 225 227 220 211 181 200 199 211 205 212 218 199 199 215 227 237 265 260 242 262 245 224 192 204 206 210 219 242 232 222 206 201 216 246
198 200 203 204 204 207 206 208 206 206 225 212 205 196 199 203 211 227 216 232 226 227 211 223 233 241 257 245 256 274 272 265 253 186 211 214 230 243 241 220 210 206 226
202 200 202 204 207 205 206 211 212 217 219 218 217 205 202 205 210 213 216 226 240 243 235 241 230 246 254 254 234 255 288 319 281 243 214 210 219 229 243 252 228 195 218
198 197 196 198 202 203 208 211 216 221 219 216 212 203 215 208 215 219 214 218 228 242 245 263 255 254 249 261 261 251 249 243 255 264 257 249 235 229 221 234 245 238 227
191 192 190 190 197 200 205 211 214 216 219 220 215 208 213 210 209 208 212 218 229 244 242 248 248 239 257 269 274 267 252 250 248 254 256 245 245 235 229 239 245 235 232
Height
1521 1520 1519 1519 1521 1523 1524 1525 1527 1529 1531 1532 1534 1535 1537 1538 1540 1541 1542 1543 1544 1545 1547 1548 1549 1550 1550 1551 1552 1553 1553 1554 1555 1555 1555 1556 1556 1557 1558 1558 1559 1560 1560
1521 1521 1521 1522 1524 1525 1526 1528 1529 1531 1533 1534 1535 1537 1539 1540 1542 1543 1544 1544 1546 1547 1548 1549 1550 1551 1552 1552 1553 1554 1554 1555 1556 1556 1556 1557 1557 1558 1559 1559 1560 1561 1561
1522 1523 1523 1524 1525 1527 1528 1530 1531 1533 1535 1536 1537 1539 1540 1542 1543 1544 1545 1546 1547 1548 1549 1550 1551 1552 1553 1553 1554 1555 1555 1556 1557 1557 1558 1559 1559 1559 1559 1560 1560 1561 1562
1524 1525 1525 1526 1527 1528 1529 1531 1533 1535 1537 1538 1540 1541 1542 1543 1545 1546 1547 1548 1549 1550 1551 1552 1552 1553 1554 1555 1555 1556 1556 1557 1558 1558 1560 1562 1561 1560 1560 1561 1561 1562 1563
1527 1528 1528 1528 1529 1528 1528 1532 1535 1537 1539 1540 1542 1543 1544 1545 1546 1547 1548 1549 1550 1551 1552 1553 1553 1554 1555 1556 1556 1557 1557 1558 1559 1560 1561 1562 1561 1560 1561 1561 1562 1562 1563
1530 1531 1530 1531 1531 1529 1529 1534 1537 1539 1541 1542 1543 1545 1546 1547 1548 1549 1550 1550 1551 1552 1553 1554 1554 1555 1556 1556 1557 1558 1558 1559 1560 1562 1562 1562 1562 1561 1561 1562 1562 1563 1564
1532 1533 1533 1533 1534 1534 1535 1537 1539 1541 1542 1544 1545 1546 1547 1548 1549 1550 1551 1551 1552 1553 1554 1554 1555 1556 1557 1557 1558 1558 1559 1559 1561 1562 1562 1562 1562 1561 1561 1562 1563 1563 1564
1534 1535 1535 1536 1537 1538 1539 1540 1542 1543 1544 1546 1546 1547 1549 1549 1550 1551 1552 1553 1553 1554 1554 1555 1556 1556 1557 1557 1558 1558 1559 1559 1561 1562 1563 1563 1561 1561 1561 1562 1562 1563 1564
1537 1538 1538 1539 1539 1540 1541 1543 1544 1545 1546 1547 1548 1549 1550 1551 1551 1552 1553 1553 1554 1554 1555 1555 1556 1556 1557 1557 1558 1559 1559 1560 1561 1562 1562 1562 1561 1561 1561 1562 1562 1563 1564
1538 1539 1540 1542 1542 1544 1544 1545 1546 1547 1548 1549 1549 1550 1551 1552 1552 1553 1553 1554 1554 1554 1555 1555 1556 1556 1557 1557 1558 1559 1559 1560 1561 1562 1562 1561 1560 1561 1561 1561 1562 1562 1563
1539 1541 1542 1544 1544 1545 1547 1547 1547 1548 1549 1550 1551 1551 1552 1553 1554 1554 1554 1554 1555 1555 1555 1555 1556 1556 1557 1557 1558 1558 1559 1561 1562 1562 1562 1560 1560 1560 1561 1561 1561 1562 1562
1540 1542 1543 1545 1546 1547 1548 1548 1549 1550 1551 1551 1552 1552 1553 1554 1555 1555 1554 1554 1555 1555 1555 1555 1556 1556 1557 1559 1559 1558 1560 1561 1561 1561 1561 1560 1560 1560 1560 1560 1561 1561 1562
1541 1543 1544 1545 1546 1547 1548 1549 1550 1551 1551 1552 1552 1553 1553 1554 1555 1555 1556 1555 1555 1555 1556 1555 1556 1558 1559 1559 1559 1560 1560 1561 1561 1561 1560 1559 1559 1559 1559 1559 1560 1560 1561
1542 1543 1544 1545 1546 1547 1548 1549 1550 1551 1552 1552 1552 1553 1553 1554 1554 1555 1555 1555 1555 1555 1555 1556 1556 1557 1557 1558 1558 1558 1559 1559 1560 1560 1559 1558 1558 1558 1558 1558 1559 1559 1560
1542 1543 1544 1545 1545 1546 1547 1549 1550 1551 1552 1552 1552 1552 1553 1553 1554 1554 1554 1554 1555 1555 1555 1555 1555 1555 1556 1556 1557 1557 1557 1558 1558 1559 1558 1557 1557 1557 1557 1557 1557 1558 1558
1541 1543 1544 1545 1545 1546 1547 1548 1549 1550 1550 1552 1552 1552 1552 1553 1553 1553 1553 1553 1554 1554 1554 1554 1554 1554 1555 1555 1555 1556 1556 1556 1556 1557 1557 1556 1556 1556 1556 1556 1556 1556 1557
1540 1542 1543 1544 1545 1546 1547 1548 1549 1550 1550 1551 1551 1551 1551 1552 1551 1552 1552 1552 1552 1552 1552 1553 1553 1554 1554 1554 1554 1554 1555 1555 1555 1555 1556 1556 1555 1554 1554 1554 1554 1555 1555
1540 1541 1542 1544 1545 1545 1546 1547 1548 1549 1549 1550 1550 1550 1550 1550 1550 1550 1551 1552 1551 1552 1552 1552 1553 1553 1553 1553 1553 1553 1553 1553 1553 1553 1554 1554 1554 1554 1553 1553 1553 1553 1553
1538 1540 1541 1543 1544 1545 1546 1546 1547 1547 1548 1549 1549 1549 1549 1549 1549 1550 1550 1550 1550 1551 1551 1551 1552 1552 1552 1552 1552 1552 1552 1552 1552 1553 1553 1553 1553 1553 1553 1551 1551 1551 1551
1537 1538 1540 1541 1542 1543 1544 1545 1546 1546 1547 1547 1548 1548 1548 1548 1548 1549 1550 1549 1550 1550 1550 1550 1550 1550 1550 1550 1551 1551 1551 1551 1551 1551 1551 1552 1551 1551 1551 1551 1551 1550 1549
1535 1536 1538 1539 1540 1541 1543 1544 1545 1545 1546 1547 1547 1547 1547 1547 1548 1548 1549 1548 1548 1549 1549 1549 1549 1549 1550 1549 1550 1550 1550 1550 1550 1550 1550 1550 1550 1550 1550 1549 1549 1549 1549
1533 1534 1536 1537 1539 1540 1541 1542 1543 1544 1545 1545 1546 1546 1546 1546 1547 1548 1547 1548 1548 1547 1547 1547 1547 1548 1548 1548 1548 1548 1548 1549 1548 1548 1548 1548 1549 1549 1549 1548 1547 1547 1547
1530 1532 1533 1535 1536 1538 1539 1541 1542 1542 1543 1544 1544 1545 1545 1545 1546 1546 1546 1546 1546 1547 1547 1546 1546 1547 1547 1547 1547 1548 1547 1546 1546 1547 1547 1547 1546 1546 1547 1546 1546 1545 1545
1528 1529 1531 1532 1534 1535 1537 1539 1539 1540 1541 1542 1543 1543 1544 1544 1545 1545 1545 1545 1545 1546 1545 1545 1545 1545 1545 1546 1546 1545 1546 1546 1546 1545 1546 1545 1545 1544 1545 1545 1545 1544 1544
1525 1526 1528 1529 1531 1532 1534 1536 1537 1538 1539 1540 1541 1541 1542 1542 1543 1543 1543 1543 1543 1544 1543 1543 1543 1543 1543 1544 1544 1544 1544 1544 1544 1544 1543 1544 1543 1543 1543 1543 1543 1543 1542
1522 1523 1525 1526 1527 1529 1531 1533 1534 1535 1537 1538 1538 1539 1540 1540 1540 1541 1541 1541 1541 1542 1541 1541 1541 1541 1541 1541 1542 1542 1542 1542 1542 1542 1541 1541 1541 1541 1541 1540 1541 1540 1540